Williamtown Observation History
Time Wind Speed Temp Pressure Rel. Hum Rain
04/08:00am WSW 9-14 kts 11.6°c 1031.5 hPa 71% 0.2mm
04/07:30am WSW 8-11 kts 11.4°c 1031.2 hPa 68% 0.2mm
04/07:00am WSW 8-10 kts 11.4°c 1030.8 hPa 69% 0.2mm
04/06:30am SW 7-11 kts 11.5°c 1030.5 hPa 69% 0.2mm
04/06:00am WSW 8-11 kts 11.4°c 1030.1 hPa 70% 0.2mm
04/05:30am SW 9-15 kts 11.5°c 1029.9 hPa 70% 0.2mm
04/05:00am WSW 9-12 kts 11.6°c 1029.6 hPa 70% 0.2mm
04/04:30am WSW 8-11 kts 11.3°c 1029.2 hPa 74% 0.2mm
04/04:00am SW 10-16 kts 11.1°c 1029.0 hPa 80% 0.2mm
04/03:30am WSW 10-15 kts 11.4°c 1029.1 hPa 76% 0.0mm
04/03:00am W 9-11 kts 11.5°c 1028.8 hPa 77% 0.0mm
04/02:30am W 7-8 kts 11.6°c 1028.8 hPa 79% 0.0mm
04/02:00am SW 10-14 kts 12.3°c 1028.7 hPa 73% 0.0mm
04/01:30am WSW 7-10 kts 11.8°c 1028.5 hPa 73% 0.0mm
04/01:00am WSW 9-12 kts 12.2°c 1028.4 hPa 72% 0.0mm
04/12:30am WSW 9-12 kts 12.4°c 1028.5 hPa 71% 0.0mm
04/12:00am SW 10-14 kts 12.9°c 1028.4 hPa 69% 0.0mm
Time Wind Speed Temp Pressure Rel. Hum Rain
03/11:30pm WSW 9-12 kts 13.3°c 1028.5 hPa 66% 0.0mm
03/11:00pm SW 8-11 kts 13.1°c 1028.4 hPa 66% 0.0mm
03/10:30pm SW 9-15 kts 13.4°c 1028.3 hPa 65% 0.0mm
03/10:00pm SSW 13-18 kts 14.9°c 1028.3 hPa 58% 0.0mm
03/09:30pm SSW 14-20 kts 15.6°c 1028.0 hPa 57% 0.0mm
03/09:00pm S 15-22 kts 15.9°c 1027.8 hPa 59% 0.0mm
03/08:30pm S 14-20 kts 15.7°c 1027.6 hPa 58% 0.0mm
03/08:00pm SSW 11-17 kts 16.1°c 1027.3 hPa 55% 0.0mm
03/07:30pm S 14-20 kts 15.9°c 1027.0 hPa 55% 0.0mm
03/07:00pm S 13-18 kts 15.7°c 1026.5 hPa 50% 0.0mm
03/06:30pm S 16-21 kts 15.7°c 1026.1 hPa 49% 0.0mm
03/06:00pm S 16-24 kts 15.8°c 1025.5 hPa 50% 0.0mm
03/05:30pm S 14-19 kts 15.8°c 1025.0 hPa 51% 0.0mm
03/05:00pm S 15-21 kts 15.7°c 1024.6 hPa 50% 0.0mm
03/04:30pm S 12-17 kts 16.0°c 1024.3 hPa 51% 0.0mm
03/04:00pm S 13-18 kts 16.5°c 1023.9 hPa 48% 0.0mm
03/03:30pm SSW 15-21 kts 16.8°c 1023.5 hPa 46% 0.0mm
03/03:00pm SSW 14-19 kts 18.0°c 1023.0 hPa 43% 0.0mm
03/02:30pm SSW 15-21 kts 18.1°c 1022.5 hPa 39% 0.0mm
03/02:00pm SSW 14-19 kts 18.2°c 1022.3 hPa 38% 0.0mm
03/01:30pm SW 16-19 kts 18.5°c 1022.2 hPa 40% 0.0mm
03/01:00pm SSW 14-19 kts 18.3°c 1022.0 hPa 39% 0.0mm
03/12:30pm SW 14-19 kts 18.1°c 1021.9 hPa 42% 0.0mm
03/12:00pm WSW 11-17 kts 17.6°c 1022.2 hPa 48% 0.0mm
03/11:30am WSW 12-16 kts 17.1°c 1022.3 hPa 51% 0.0mm
03/11:00am WNW 15-20 kts 16.4°c 1022.4 hPa 53% 0.0mm
03/10:30am WNW 19-23 kts 15.3°c 1022.3 hPa 55% 0.0mm
03/10:00am W 19-26 kts 14.9°c 1022.3 hPa 58% 0.0mm
03/09:30am WNW 20-27 kts 13.7°c 1022.0 hPa 59% 0.0mm
03/09:00am WNW 19-26 kts 12.8°c 1021.6 hPa 62% 0.6mm
03/08:44am W 16-26 kts 12.5°c 1021.7 hPa 64% 0.6mm
03/08:30am W 17-22 kts 12.2°c 1021.3 hPa 65% 0.6mm
03/08:00am W 15-19 kts 11.5°c 1020.8 hPa 67% 0.6mm
03/07:30am W 15-20 kts 10.6°c 1020.5 hPa 70% 0.6mm
03/07:00am WNW 15-21 kts 10.2°c 1020.1 hPa 72% 0.6mm
03/06:30am WNW 15-20 kts 10.2°c 1020.2 hPa 71% 0.6mm
03/06:00am WNW 14-19 kts 10.1°c 1019.9 hPa 72% 0.6mm
03/05:30am WNW 16-18 kts 9.8°c 1019.4 hPa 72% 0.6mm
03/05:00am WNW 16-21 kts 9.8°c 1019.2 hPa 71% 0.6mm
03/04:30am WNW 17-20 kts 10.0°c 1018.7 hPa 70% 0.6mm
03/04:00am WNW 16-21 kts 9.9°c 1018.6 hPa 70% 0.6mm
03/03:30am WNW 15-19 kts 9.7°c 1018.5 hPa 71% 0.6mm
03/03:00am WNW 16-21 kts 9.7°c 1018.4 hPa 71% 0.6mm
03/02:30am WNW 16-22 kts 9.4°c 1018.3 hPa 72% 0.6mm
03/02:00am WNW 15-20 kts 9.4°c 1018.4 hPa 72% 0.6mm
03/01:30am WNW 15-19 kts 9.3°c 1018.6 hPa 71% 0.6mm
03/01:00am WNW 16-19 kts 9.4°c 1018.8 hPa 70% 0.6mm
03/12:30am WNW 15-20 kts 9.2°c 1019.1 hPa 70% 0.6mm
03/12:00am WNW 16-20 kts 9.4°c 1019.1 hPa 68% 0.6mm
Time Wind Speed Temp Pressure Rel. Hum Rain
02/11:30pm WNW 16-21 kts 9.3°c 1018.9 hPa 67% 0.6mm
02/11:00pm WNW 18-23 kts 9.2°c 1018.8 hPa 66% 0.6mm
02/10:30pm WNW 17-21 kts 9.2°c 1018.8 hPa 66% 0.6mm
02/10:00pm WNW 17-22 kts 9.5°c 1018.8 hPa 64% 0.6mm
02/09:30pm WNW 16-22 kts 9.7°c 1018.8 hPa 65% 0.6mm
02/09:00pm WNW 19-27 kts 10.1°c 1018.6 hPa 65% 0.6mm
02/08:30pm WNW 18-28 kts 10.1°c 1018.7 hPa 67% 0.6mm
02/08:27pm WNW 18-28 kts 10.1°c 1018.6 hPa 67% 0.6mm
02/08:00pm WNW 18-22 kts 10.3°c 1018.3 hPa 68% 0.6mm
02/07:30pm WNW 19-26 kts 10.5°c 1017.8 hPa 68% 0.6mm
02/07:00pm WNW 19-24 kts 10.5°c 1017.3 hPa 68% 0.6mm
02/06:30pm WNW 20-28 kts 10.8°c 1016.7 hPa 67% 0.6mm
02/06:00pm WNW 21-28 kts 11.2°c 1016.4 hPa 65% 0.6mm
02/05:30pm WNW 20-28 kts 11.9°c 1015.9 hPa 63% 0.6mm
02/05:13pm WNW 21-31 kts 12.5°c 1015.5 hPa 60% 0.6mm
02/05:00pm WNW 20-26 kts 12.9°c 1015.3 hPa 59% 0.6mm
02/04:30pm WNW 17-26 kts 14.4°c 1015.0 hPa 51% 0.6mm
02/04:21pm W 16-26 kts 14.7°c 1014.8 hPa 50% 0.6mm
02/04:00pm W 16-22 kts 15.2°c 1014.5 hPa 50% 0.6mm
02/03:48pm WNW 15-25 kts 15.1°c 1014.2 hPa 50% 0.6mm
02/03:30pm WNW 16-23 kts 14.0°c 1014.1 hPa 53% 0.6mm
02/03:00pm WNW 19-26 kts 14.0°c 1014.1 hPa 53% 0.6mm
02/02:34pm WNW 20-30 kts 14.1°c 1013.5 hPa 56% 0.6mm
02/02:30pm WNW 21-29 kts 13.9°c 1013.5 hPa 55% 0.6mm
02/02:07pm WNW 24-34 kts 14.1°c 1013.0 hPa 50% 0.6mm
02/02:00pm WNW 23-32 kts 14.6°c 1013.0 hPa 50% 0.6mm
02/01:49pm WNW 23-38 kts 14.1°c 1012.7 hPa 51% 0.6mm
02/01:30pm WNW 21-28 kts 13.7°c 1013.1 hPa 54% 0.6mm
02/01:06pm W 18-29 kts 13.8°c 1013.4 hPa 54% 0.6mm
02/01:00pm W 21-29 kts 14.0°c 1013.5 hPa 56% 0.6mm
02/12:30pm WNW 22-31 kts 12.5°c 1013.6 hPa 59% 0.6mm
02/12:09pm WNW 18-28 kts 12.0°c 1014.0 hPa 63% 0.6mm
02/12:00pm WNW 19-26 kts 11.9°c 1014.2 hPa 65% 0.6mm
02/11:30am WNW 12-17 kts 10.8°c 1014.7 hPa 71% 0.6mm
02/11:00am WNW 15-20 kts 9.8°c 1015.3 hPa 77% 0.4mm
02/10:30am WNW 17-26 kts 10.0°c 1015.6 hPa 73% 0.0mm
02/10:00am WNW 19-29 kts 10.6°c 1015.7 hPa 64% 0.0mm
02/09:30am WNW 21-29 kts 10.7°c 1015.7 hPa 62% 0.0mm
02/09:00am WNW 20-27 kts 10.7°c 1015.5 hPa 62% 0.0mm
02/08:30am WNW 20-27 kts 10.1°c 1015.0 hPa 65% 0.0mm
02/08:00am WNW 20-26 kts 9.5°c 1014.9 hPa 65% 0.0mm
02/07:30am WNW 17-22 kts 8.8°c 1014.7 hPa 69% 0.0mm
02/07:00am WNW 18-23 kts 8.3°c 1014.7 hPa 70% 0.0mm
02/06:30am WNW 19-26 kts 8.8°c 1014.6 hPa 68% 0.0mm
02/06:00am WNW 16-21 kts 8.6°c 1014.2 hPa 68% 0.0mm
02/05:30am WNW 14-19 kts 8.4°c 1013.6 hPa 68% 0.0mm
02/05:00am WNW 15-21 kts 8.7°c 1013.1 hPa 68% 0.0mm
02/04:30am WNW 17-21 kts 8.7°c 1012.8 hPa 68% 0.0mm
02/04:00am NW 16-20 kts 9.1°c 1012.9 hPa 68% 0.0mm
02/03:30am WNW 16-21 kts 9.2°c 1012.9 hPa 68% 0.0mm
02/03:00am WNW 17-24 kts 9.2°c 1013.0 hPa 70% 0.0mm
02/02:30am WNW 14-18 kts 9.1°c 1013.2 hPa 70% 0.0mm
02/02:00am WNW 15-21 kts 9.8°c 1013.4 hPa 66% 0.0mm
02/01:30am WNW 14-20 kts 10.1°c 1013.8 hPa 67% 0.0mm
02/01:00am WNW 19-22 kts 10.6°c 1013.4 hPa 65% 0.0mm
02/12:30am WNW 14-19 kts 10.5°c 1013.8 hPa 67% 0.0mm
02/12:00am WNW 12-15 kts 10.6°c 1013.8 hPa 69% 0.0mm